Location: Newark
(37.8333°N, 119.5000°W)
Time: 05:30:13
(UTC+00:00)

Tiros 1 despin weight - Pass Details

Date: 28 August 2019
Orbit: 594 x 642 km, 48.2° (Epoch: 17 September)

Event Time Altitude Azimuth Distance (km) Brightness Sun altitude
Rises 08:21:13 0° 297° (WNW) 2,842 - -42.1°
Reaches altitude 10° 08:23:57 10° 313° (NW) 1,945 - -42.1°
Maximum altitude 08:27:25 22° 5° (N) 1,348 - -42.0°
Drops below altitude 10° 08:30:56 10° 56° (NE) 1,966 - -41.8°
Sets 08:33:42 0° 72° (ENE) 2,880 - -41.7°
